ATLAS 5 CENTAUR DEB, 43951

Orbit data source: Space-Track

ATLAS 5 CENTAUR DEB, 43951 is space debris in HEO originally from a launch on Wed, 17 Sep 2014 UTC launched from the Air Force Eastern Test Range (AFETR). Debris objects in space refer to the collection of defunct objects orbiting the Earth. Examples of debris include non-operational satellites, rocket bodies, and fragments generated from explosions, collisions, or faulty payload assembly.

Loading next visibility...
Identifier
43951, 2014-055E
Orbit
HEO
Country
Flag of USUS
Related business
Flag of USUnited Launch Alliance/Lockheed Martin (US)
Manufacturer
Unknown
Mission
Spacecraft
Bus & Motor
Unknown
Mass
Unknown
Launch date (UTC)
2014-09-17 (12 years ago)
Launch vehicle
Unknown
Launch site
Air Force Eastern Test Range (AFETR)
Object type
Payload
Rocket body
Debris
Shape & HBR
Unknown shape, 1.1 m
Radar Cross Section
Small (<0.1 m²)

Expand to show TLE details & history
Last TLE update: 17 hours ago

TLE from 17 hours ago
0 ATLAS 5 CENTAUR DEB
1 43951U 14055E   26100.13054974 -.00000066  00000-0  00000-0 0  9992
2 43951  20.5655 130.3683 4872315 191.2297 151.9330  1.89446189 52607
Epoch: 2026-04-10T03:07Z
TLE epoch observation values (Epoch: 2026-04-10T03:07:59.497Z)
Latitude
-0.00001°
Longitude
-114.97047°
Altitude
33,903.347 km
Speed
2.312 km/s
True Right ascension
08h 41m 35s
True Declination
0° 00' 00"
Sunlit
Object was in daylight at epoch
Visualization orbit readout
Latitude
Unknown
Longitude
Unknown
Altitude
Unknown
Speed
Unknown
Apparent Right ascension
Unknown
Apparent Declination
Unknown
Sunlit
N/A
Visualization observer readout
Local Sidereal Time
02:40:48
Azimuth
Unknown
Elevation
Unknown
Doppler factor
Unknown
Orbital elements
Apogee altitude
34,656.839 km
Perigee altitude
7,769.925 km
Semi-major axis
27,591.519 km
Eccentricity
0.48723
Inclination
20.5655°
RAAN
130.3683°
Arg. of periapsis
191.2297°
True anomaly
168.7851°
Mean anomaly
151.933°
Eccentric anomaly
161.01483°
Mean motion
0.47357 °/min
Orbital period
760.19 mins
BSTAR
0
Loading maneuver chart data...
Computing Atmospheric mass density...

Documentation

Showing up to 5 results
|